Location: Kampung Segan
(3.1399°N, 113.1002°E)
Time: 13:54:19
(UTC+00:00)

ARIANE 5 R/B - Pass Details

Date: 05 August 2024
Orbit: 512 x 17429 km, 6.8° (Epoch: 09 September)

Event Time Altitude Azimuth Distance (km) Brightness Sun altitude
Rises 18:40:48 0° 264° (W) 19,291 8.8 -52.9°
Enters shadow 19:09:55 - 261° (W) 14,503 8.0 -46.6°
Exits shadow 19:53:41 58° 191° (S) 2,353 4.1 -36.8°
Maximum altitude 19:53:57 58° 185° (S) 2,297 4.1 -36.7°
Drops below altitude 10° 20:00:32 10° 105° (ESE) 2,838 5.4 -35.2°
Sets 20:02:10 0° 100° (E) 3,419 6.1 -34.8°
